Date,TemperatureHighF,TemperatureAvgF,TemperatureLowF,DewpointHighF,DewpointAvgF,DewpointLowF,HumidityHigh,HumidityAvg,HumidityLow,PressureMaxIn,PressureMinIn,WindSpeedMaxMPH,WindSpeedAvgMPH,GustSpeedMaxMPH,PrecipitationSumIn
2013-2-1,53.6,43.0,35.2,39.9,34.2,28.8,96,73,40,30.43,30.32,16,2,17,0.00
2013-2-2,50.2,37.9,29.7,39.0,32.0,28.1,98,81,50,30.46,30.29,8,1,10,0.00
2013-2-3,48.6,40.4,29.8,39.8,32.5,28.6,98,75,54,30.29,30.17,18,6,26,0.00
2013-2-4,50.7,43.8,39.0,35.8,33.6,30.6,81,68,48,30.20,29.96,15,2,18,0.00
2013-2-5,50.7,42.1,36.1,40.2,36.5,32.0,94,81,60,30.02,29.90,11,3,14,0.08
2013-2-6,48.6,41.1,36.0,41.6,36.9,32.2,98,86,54,30.11,29.90,6,0,8,0.08
2013-2-7,46.0,38.0,30.0,38.3,29.8,24.5,98,74,45,30.11,29.90,15,4,17,0.04
2013-2-8,44.4,34.4,26.2,35.1,26.8,23.2,98,76,45,30.23,30.11,16,4,17,0.00
2013-2-9,45.3,40.5,35.1,32.2,26.7,22.6,72,58,49,30.26,30.14,26,10,27,0.00
2013-2-10,48.4,38.3,29.3,34.5,30.1,27.6,97,74,48,30.32,30.23,15,4,20,0.00
2013-2-11,48.4,41.9,37.9,37.8,29.5,24.4,85,62,46,30.32,30.23,27,12,29,0.00
2013-2-12,51.3,46.0,42.1,41.3,38.3,32.9,89,75,51,30.37,30.32,19,10,26,0.00
2013-2-13,51.4,46.9,43.0,39.1,34.4,28.0,76,62,42,30.46,30.32,19,9,20,0.00
2013-2-14,53.6,45.2,37.4,36.6,33.3,30.6,88,64,47,30.52,30.46,16,6,20,0.00
2013-2-15,55.6,41.6,31.3,39.1,34.0,29.8,98,77,44,30.52,30.26,8,1,9,0.00
2013-2-16,50.4,40.8,32.2,40.3,32.9,25.6,98,75,51,30.26,30.11,23,8,28,0.00
2013-2-17,44.6,39.5,33.1,29.5,22.0,18.4,71,50,40,30.23,30.11,26,9,37,0.00
2013-2-18,45.1,36.0,30.0,28.2,24.9,23.3,80,65,43,30.11,29.78,9,1,13,0.00
2013-2-19,50.5,36.3,26.8,29.3,25.2,21.5,90,67,36,29.96,29.72,8,1,8,0.00
2013-2-20,46.9,37.5,29.7,35.7,30.6,26.0,98,78,47,30.05,29.96,17,4,18,0.00
2013-2-21,44.1,39.1,34.7,35.7,32.4,25.5,98,78,50,30.11,30.05,17,4,22,0.00
2013-2-22,43.2,40.3,36.3,41.3,35.4,23.5,97,83,53,30.11,29.78,27,5,30,0.20
2013-2-23,44.1,39.0,33.8,30.9,25.4,21.5,81,59,42,30.35,29.99,28,12,32,0.00
2013-2-24,48.9,40.6,36.1,30.2,26.6,23.5,77,58,39,30.37,30.05,15,6,17,0.00
2013-2-25,45.5,38.5,35.6,37.4,31.2,21.7,98,76,52,30.29,29.99,22,8,24,0.31
2013-2-26,47.5,40.3,34.0,32.3,28.2,20.3,83,63,42,30.37,30.26,17,6,25,0.00
2013-2-27,52.3,40.5,30.6,39.0,33.3,29.0,97,78,42,30.32,30.26,7,1,10,0.00
2013-2-28,53.1,46.5,41.5,49.5,44.3,38.9,98,92,75,30.40,30.23,6,0,7,0.24